Theta_e
335 336 337 338 338 337 336 336 335 334 333 332 332 331 331 331 331 331 331 332 332 333 333 333 330 328 322
329 330 331 333 334 335 334 332 330 330 329 328 327 330 330 330 330 332 332 332 332 332 332 330 328 327 320
327 325 327 328 329 328 326 325 324 324 325 324 325 328 330 330 330 331 333 334 331 329 328 327 326 323 321
329 324 326 327 326 325 324 324 324 325 325 325 321 324 327 328 330 333 334 331 327 324 323 324 323 324 321
324 324 324 325 325 325 326 326 326 326 324 324 324 324 324 320 324 326 327 325 325 324 325 324 324 325 322
320 323 325 325 325 325 326 327 325 324 324 324 323 323 324 327 326 325 326 330 329 328 327 326 327 326 324
322 323 325 325 325 326 326 327 325 323 323 324 326 329 330 331 330 327 326 325 324 324 323 322 323 323 323
325 326 328 325 325 325 325 325 325 325 325 331 332 331 330 331 328 325 324 321 319 319 318 319 318 317 318
328 329 327 325 326 323 326 329 328 328 332 331 327 324 325 323 320 317 316 315 314 315 313 315 314 314 313
325 327 325 325 325 321 319 318 318 319 321 320 319 318 319 315 314 313 312 311 310 309 309 310 310 310 311
324 323 319 317 315 314 313 313 313 315 316 315 314 314 312 310 308 309 308 308 306 306 307 309 307 307 308
322 317 315 313 310 309 308 308 309 309 310 310 309 309 308 306 304 303 304 306 305 302 306 306 305 307 303
322 319 314 309 305 302 301 301 302 302 303 304 303 301 303 300 299 298 299 302 303 299 302 303 305 305 300
319 314 311 305 300 298 298 297 298 298 298 298 298 297 296 298 297 297 296 299 298 297 293 298 297 298 299
312 309 305 302 299 295 294 294 295 296 296 296 296 296 296 297 295 295 294 294 294 293 293 293 288 289 291
310 309 304 298 292 293 293 294 293 294 294 294 294 293 294 295 294 292 293 293 293 289 292 293 292 290 286
Wind_Speed
10 10 10 10 10 10 10 9 8 7 7 6 5 4 4 3 3 3 3 5 6 7 8 7 8 8 6
6 9 9 9 9 8 8 7 6 6 6 5 4 3 1 0 2 4 5 5 5 6 7 9 6 5 5
6 6 7 8 7 7 6 7 5 2 3 4 4 4 3 3 4 5 7 7 7 8 8 8 6 3 4
5 5 5 5 4 4 4 4 3 4 4 4 3 6 5 6 7 9 9 8 6 4 4 5 3 4 3
5 4 2 2 3 2 4 4 3 2 2 2 2 3 3 4 3 4 4 3 4 3 4 4 4 4 3
4 4 4 3 3 3 3 5 3 1 1 2 1 2 3 2 3 2 2 4 4 5 5 5 5 4 3
6 4 4 4 4 4 3 3 2 2 2 2 2 1 2 2 3 3 3 4 5 5 5 5 5 6 6
5 6 5 4 4 4 3 3 3 1 2 2 3 4 4 3 3 3 4 4 4 4 6 6 5 5 6
5 5 4 4 3 3 3 5 6 4 5 5 4 5 4 4 6 5 5 4 5 4 5 5 5 6 5
5 4 4 4 5 6 6 6 8 8 7 6 5 5 5 6 5 4 4 4 4 4 4 5 4 4 5
6 7 7 9 7 7 6 6 9 9 8 7 6 6 7 5 5 4 3 3 5 7 6 5 4 4 4
7 8 7 8 7 7 7 7 9 7 9 7 7 8 7 7 7 7 5 4 5 7 6 5 3 2 4
6 6 5 5 6 7 7 10 10 9 10 9 7 8 6 8 8 8 4 5 6 9 4 4 4 3 8
5 6 5 5 7 7 7 10 10 11 10 10 9 8 8 6 8 9 8 3 4 7 3 3 5 5 4
10 10 10 9 6 6 7 7 9 11 12 10 10 8 8 6 6 7 8 8 4 3 8 3 3 3 4
8 8 10 9 9 6 7 6 7 11 11 8 10 9 8 6 8 8 8 7 6 5 3 6 4 3 3
Wind_Direction
122 121 118 116 117 123 126 124 120 118 114 103 87 79 71 52 25 2 343 335 334 334 329 325 325 325 331
130 126 126 128 132 136 139 138 138 133 134 137 137 144 162 273 307 308 305 304 308 305 300 300 286 296 302
134 139 135 146 151 152 152 155 143 158 186 192 211 215 222 243 267 275 277 284 295 293 291 291 308 268 280
152 155 155 166 165 166 165 174 189 206 221 207 229 246 258 266 270 271 269 289 297 312 311 308 301 296 297
151 166 171 175 175 192 201 185 188 172 200 213 237 255 255 258 269 307 330 305 309 303 308 311 303 307 289
157 174 176 176 196 196 195 172 148 138 274 265 244 272 254 266 279 345 349 341 356 345 348 336 332 321 317
167 176 182 202 179 178 181 191 138 201 228 269 271 332 29 9 41 18 7 11 7 348 338 344 334 333 331
174 179 184 178 169 154 169 199 178 197 256 71 22 33 37 23 18 353 10 22 359 350 341 341 339 341 337
187 164 137 162 150 97 83 65 59 39 45 56 44 32 21 18 36 30 16 22 9 351 336 333 340 346 346
168 136 114 74 76 70 62 57 53 48 49 53 48 35 27 30 22 25 11 4 357 345 323 318 345 358 9
172 84 79 77 73 66 59 50 51 50 52 62 52 41 32 30 22 359 3 18 3 344 325 319 356 30 38
101 98 84 75 65 64 60 53 50 50 55 64 54 51 37 36 21 10 359 359 24 339 317 322 343 78 45
125 118 89 91 77 67 60 53 52 46 46 53 56 42 43 55 23 20 349 4 7 351 332 346 331 124 53
101 102 110 108 84 80 66 56 49 51 48 61 53 60 31 37 38 30 32 347 3 16 354 310 356 335 15
98 106 103 101 83 75 58 61 37 46 49 28 61 39 60 37 43 38 27 26 13 357 31 43 3 312 331
81 100 97 101 104 86 72 68 59 46 46 43 40 52 45 40 44 36 30 29 20 22 348 17 45 60 1